Showing default

UHETSAT, 58466

Orbit data source: Space-Track

UHETSAT, 58466 is a payload satellite owned by SITAEL SpA (IT) in SSO that was launched on Fri, 01 Dec 2023 UTC via an FALCON 9 launch vehicle from the Air Force Western Test Range (AFWTR). Payload-class satellites include a variety of spacecraft equipped with specific instruments for various scientific and technological missions. These include communications satellites like Starlink; space stations such as the ISS; scientific satellites like the Hubble; Earth observation satellites from companies like Planet Labs, Umbra, and HawkEye 360; GPS; miniature CubeSats for education and research; and military/defense satellites.

Loading next visibility...
Identifier
58466, 2023-185E
Orbit
SSO
Country
Flag of ITIT
Related business
Manufacturer
SITAEL SpA
Mission
Operational Commercial Technology
Bus & Motor
S-50, Unknown motor
Mass
70 kg wet, 70 kg dry
Launch date (UTC)
2023-12-01 (2 years ago)
Launch vehicle
FALCON 9
Launch site
Air Force Western Test Range (AFWTR)
Object type
Payload
Rocket body
Debris
Shape & HBR
Box, 0.3 m
Radar Cross Section
0.360 m², Medium (>0.1 m² and < 1m²)

Expand to show TLE details & history
Last TLE update: 14 hours ago

TLE from 14 hours ago
0 UHETSAT
1 58466U 23185E   25261.34270424  .00006556  00000-0  25403-3 0  9999
2 58466  97.3866 326.5422 0014228 189.1310 170.9672 15.26399268 99757
Epoch: 2025-09-18T08:13Z
TLE epoch observation values (Epoch: 2025-09-18T08:13:29.646Z)
Latitude
-0.00003°
Longitude
-154.33699°
Altitude
499.335 km
Speed
7.609 km/s
True Right ascension
21h 46m 10s
True Declination
0° 00' 00"
Sunlit
Object was in full shadow at epoch
Visualization orbit readout
Latitude
Unknown
Longitude
Unknown
Altitude
Unknown
Speed
Unknown
Apparent Right ascension
Unknown
Apparent Declination
Unknown
Sunlit
N/A
Visualization observer readout
Local Sidereal Time
15:22:46
Azimuth
Unknown
Elevation
Unknown
Doppler factor
Unknown
Orbital elements
Apogee altitude
493.306 km
Perigee altitude
473.781 km
Semi-major axis
6,861.68 km
Eccentricity
0.00142
Inclination
97.3866°
RAAN
326.5422°
Arg. of periapsis
189.131°
True anomaly
170.99275°
Mean anomaly
170.9672°
Eccentric anomaly
170.97998°
Mean motion
3.81854 °/min
Orbital period
94.28 mins
BSTAR
0.00025403
Loading maneuver chart data...
Computing Atmospheric mass density...
Loading historical data...
Loading historical data...
Loading historical data...
Loading historical data...
Loading historical data...
Loading historical data...
Loading historical data...

Documentation

Showing up to 5 results
|